[[{"header":{"parameterUnit":"m.s-1","parameterCategory":1,"la1":30.2991,"la2":30.254,"lo1":-89.0895,"lo2":-89.0444,"dy":0.0017,"dx":0.0017,"nx":28,"ny":28,"refTime":"2025-08-06T03:00:00:Z","depth":0,"parameterNumber":2,"parameterNumberName":"U-component_of_WINDS"},"data":[0,0,0,0,0,0,0,0,0,0,0,0,0,0,0,0,0,0,0,0,0,0,0,0,0,0,0,0,0,0,0,0,0,0,0,0,0,0,0,0,0,0,0,0,0,0,0,0,0,0,0,0,0,0,0,0,0,0,1.9876,1.9878,0,2.0026,2.0028,2.0029,2.0067,2.0066,2.0065,2.0064,2.0215,2.022,2.0224,0,0,0,0,0,0,0,0,0,0,0,0,0,1.9619,1.9624,1.9876,1.9878,1.988,2.0026,2.0028,2.003,2.0067,2.0066,2.0065,2.0064,2.0213,2.0219,2.0225,0,0,0,0,0,0,0,0,0,0,0,0,0,1.9746,1.9625,1.9875,1.9916,1.9921,2.0025,2.0028,2.003,2.0067,2.0066,2.0065,2.0063,2.0211,2.0218,2.0226,2.0299,0,0,2.0248,2.0251,0,0,0,0,0,0,0,0,1.9739,1.9755,1.9908,1.9913,1.9919,2.0026,1.9992,2.012,2.0068,2.0012,2.0064,2.0063,2.0153,2.0165,2.0196,2.0306,2.0313,2.0249,2.0253,2.0256,2.0258,0,0,0,0,0,0,0,1.973,1.9749,1.9935,1.991,1.9917,1.9926,1.9942,2.0017,2.0088,2.0017,2.002,2.0037,2.0156,2.0189,2.02,2.0315,2.0248,2.0255,2.026,2.0262,2.0492,2.0493,0,0,0,0,0,0,1.9714,1.9741,1.993,1.994,1.9824,1.9932,1.995,1.9993,2.0088,2.0101,2.0038,2.0038,2.0177,2.0191,2.0205,2.0297,2.0256,2.0263,2.0267,2.049,2.0492,2.0494,0,0,0,0,0,0,1.9709,1.9731,1.9924,1.9842,1.9867,1.9937,1.9986,1.9997,2.003,2.0104,2.0117,2.0059,2.0177,2.0195,2.0276,2.0303,2.0266,2.0273,2.0488,2.0491,2.0493,2.048,0,0,0,0,0,0,1.9701,1.9729,1.9758,1.9842,1.9871,1.9993,1.9988,2.0001,2.0043,2.0045,2.0127,2.0139,2.0177,2.0264,2.0283,2.0312,2.0279,2.0486,2.0489,2.0492,2.0479,2.0482,2.0485,0,0,0,0,0,1.9692,1.9748,1.9759,1.9782,1.9909,1.9994,2.0011,2.0054,2.0045,2.0075,2.0122,2.0137,2.0297,2.0272,2.0293,2.0325,2.0484,2.0488,2.0492,2.0477,2.0481,2.0485,0,0,0,0,0,0,1.9664,1.976,1.9773,1.9858,1.9918,2.0,2.0039,2.0057,2.0119,2.0118,2.0168,2.0186,2.0263,2.0303,2.0273,2.0401,2.0391,2.0399,2.0372,2.0377,2.038,2.0368,2.0285,0,0,0,0,0,1.9668,1.973,1.981,1.9877,1.9906,1.9967,2.0006,2.0034,2.0097,2.0123,2.0176,2.0236,2.03,2.0341,2.0404,2.0485,2.0503,2.0517,2.0521,2.0523,2.0529,2.0574,2.0581,2.0507,2.0507,2.0506,0,0,1.9676,1.9736,1.9772,1.9873,1.9922,1.9984,1.9988,2.0054,2.01,2.0132,2.0211,2.0253,2.0323,2.0404,2.0442,2.0439,2.0554,2.0528,2.0529,2.0534,2.0578,2.0585,2.0591,2.0509,2.0509,2.0508,0,0,1.9722,1.9775,1.9836,1.9886,1.9961,2.0002,2.0016,2.0097,2.0125,2.0206,2.0232,2.0287,2.0396,2.0445,2.0484,2.055,2.0565,2.0569,2.0585,2.0628,2.0634,2.064,2.0661,2.0669,2.0575,2.0575,2.0575,0,1.9722,1.9818,1.9865,1.9929,1.9972,2.0006,2.0068,2.0114,2.0205,2.0234,2.0229,2.0367,2.0417,2.0509,2.0525,2.0557,2.0574,2.0559,2.063,2.0636,2.0641,2.0663,2.0671,2.0575,2.0575,2.0575,2.0575,0,1.9814,1.9879,1.992,2.0008,2.0056,2.0119,2.0174,2.0217,2.0241,2.0282,2.0363,2.0424,2.05,2.0524,2.0548,2.062,2.0616,2.062,2.061,2.0647,2.0668,2.0677,2.0575,2.0575,2.0575,2.0575,0,0,1.9845,1.9959,1.9973,2.0014,2.01,2.0151,2.0215,2.029,2.0325,2.0387,2.0441,2.0534,2.0538,2.0583,2.0613,2.0651,2.0697,2.0651,2.0653,2.0656,2.0778,2.0773,2.0782,2.0709,2.0711,2.0712,2.0772,0,1.99,2.0017,2.0061,2.0155,2.0216,2.025,2.0305,2.0363,2.0403,2.046,2.0504,2.0568,2.057,2.0597,2.0636,2.0683,2.0722,2.068,2.0758,2.076,2.0737,2.0794,2.0789,2.0842,2.0781,2.0782,2.0783,0,1.998,2.0044,2.0145,2.0224,2.0251,2.03,2.0372,2.0427,2.0493,2.0519,2.0569,2.0597,2.0664,2.0652,2.0745,2.0715,2.075,2.0778,2.0781,2.0788,2.0772,2.0801,2.0861,2.0868,2.0797,2.0796,2.0795,0,1.9991,2.0102,2.0177,2.0211,2.0305,2.0339,2.0379,2.0445,2.0487,2.055,2.0577,2.0647,2.0685,2.0738,2.0783,2.077,2.0871,2.0863,2.0893,2.0892,2.0912,2.0909,2.0976,2.0937,2.0937,2.0937,2.0936,0,2.0047,2.0107,2.0183,2.0229,2.0297,2.0347,2.0413,2.0455,2.0513,2.0567,2.0601,2.065,2.0708,2.0765,2.0801,2.0871,2.0888,2.0911,2.0919,2.0907,2.0904,2.0929,2.0925,2.0939,2.0938,2.0938,2.0938,0,2.007,2.0123,2.0206,2.0289,2.0311,2.0357,2.0428,2.0473,2.0515,2.0582,2.0601,2.0666,2.0735,2.0786,2.0875,2.0899,2.0974,2.0983,2.0951,2.0955,2.0982,2.0978,2.1066,2.1079,2.1032,2.1033,2.1033,0,2.0101,2.0148,2.0236,2.0275,2.0316,2.0378,2.0422,2.0473,2.0517,2.0597,2.0632,2.0703,2.0762,2.087,2.0925,2.0993,2.1003,2.1029,2.1013,2.0999,2.1002,2.0998,2.1002,2.1031,2.1031,2.1031,2.1031,0,2.0151,2.0175,2.0237,2.0309,2.036,2.0419,2.0477,2.0507,2.0569,2.0617,2.0688,2.0734,2.0825,2.0895,2.0968,2.1009,2.103,2.1036,2.1047,2.1034,2.1012,2.1023,2.0955,2.1034,2.1033,2.1033,2.1033,2.1033,2.0178,2.0221,2.029,2.0358,2.0408,2.0462,2.0509,2.0557,2.0617,2.0696,2.0723,2.0796,2.0861,2.0962,2.1004,2.1061,2.1061,2.1076,2.108,2.1082,2.108,2.1005,2.1074,2.1074,2.1075,2.1075,2.1075,0,2.0228,2.0274,2.0337,2.0418,2.0472,2.0489,2.0555,2.0598,2.0662,2.0722,2.078,2.0861,2.0929,2.099,2.106,2.1094,2.1106,2.1111,2.1108,2.1117,2.1077,2.1061,2.11,2.11,2.11,2.11,2.11,2.11,2.026,2.0334,2.0367,2.0465,2.0511,2.0583,2.0619,2.067,2.0717,2.0807,2.0864,2.0904,2.0963,2.1039,2.1101,2.1117,2.1141,2.1143,2.1161,2.1123,2.112,2.1116,2.1101,2.1149,2.1149,2.1196,2.1197,2.1197]},{"header":{"parameterUnit":"m.s-1","parameterCategory":1,"la1":30.2991,"la2":30.254,"lo1":-89.0895,"lo2":-89.0444,"dy":0.0017,"dx":0.0017,"nx":28,"ny":28,"refTime":"2025-08-06T03:00:00:Z","depth":0,"parameterNumber":3,"parameterNumberName":"V-component_of_WINDS"},"data":[0,0,0,0,0,0,0,0,0,0,0,0,0,0,0,0,0,0,0,0,0,0,0,0,0,0,0,0,0,0,0,0,0,0,0,0,0,0,0,0,0,0,0,0,0,0,0,0,0,0,0,0,0,0,0,0,0,0,2.5469,2.5469,0,2.5472,2.5472,2.5472,2.546,2.5459,2.5459,2.5459,2.5459,2.546,2.546,0,0,0,0,0,0,0,0,0,0,0,0,0,2.5452,2.5452,2.5469,2.5469,2.5469,2.5472,2.5472,2.5472,2.546,2.5459,2.5459,2.5459,2.5459,2.546,2.546,0,0,0,0,0,0,0,0,0,0,0,0,0,2.5457,2.5452,2.5469,2.5464,2.5463,2.5472,2.5472,2.5472,2.546,2.5459,2.5459,2.5458,2.5459,2.546,2.546,2.5474,0,0,2.5462,2.5462,0,0,0,0,0,0,0,0,2.5457,2.5458,2.5465,2.5464,2.5464,2.5465,2.5466,2.5472,2.546,2.5461,2.5459,2.5458,2.5462,2.5462,2.5463,2.5474,2.5474,2.5462,2.5462,2.5462,2.5462,0,0,0,0,0,0,0,2.5457,2.5458,2.547,2.5465,2.5464,2.546,2.546,2.5467,2.5464,2.5461,2.546,2.5461,2.5461,2.5463,2.5463,2.5474,2.5462,2.5462,2.5463,2.5463,2.5492,2.5493,0,0,0,0,0,0,2.5457,2.5457,2.547,2.547,2.5459,2.5461,2.5461,2.5465,2.5464,2.5463,2.5461,2.546,2.5462,2.5463,2.5463,2.5477,2.5462,2.5463,2.5463,2.5492,2.5492,2.5493,0,0,0,0,0,0,2.5457,2.5458,2.547,2.5464,2.5465,2.5462,2.5466,2.5465,2.5467,2.5464,2.5463,2.5463,2.5462,2.5463,2.5471,2.5477,2.5463,2.5463,2.5491,2.5492,2.5493,2.5506,0,0,0,0,0,0,2.5456,2.5458,2.5464,2.5464,2.5465,2.5478,2.5467,2.5466,2.5468,2.5467,2.5466,2.5466,2.5462,2.547,2.5471,2.5477,2.5464,2.5491,2.5492,2.5492,2.5505,2.5507,2.5509,0,0,0,0,0,2.5456,2.5468,2.5465,2.5466,2.5473,2.5479,2.5479,2.5475,2.5469,2.5474,2.5472,2.5466,2.5476,2.5471,2.5472,2.5479,2.549,2.5491,2.5492,2.5504,2.5507,2.5509,0,0,0,0,0,0,2.547,2.5468,2.5464,2.5477,2.5478,2.5477,2.5483,2.5478,2.5481,2.548,2.5473,2.5473,2.5482,2.5481,2.5475,2.549,2.5482,2.5483,2.5491,2.5493,2.5495,2.5494,2.5464,0,0,0,0,0,2.5474,2.548,2.5478,2.5489,2.549,2.5487,2.5489,2.5486,2.5486,2.5487,2.5485,2.5485,2.5488,2.5491,2.5494,2.5505,2.5504,2.551,2.5512,2.5514,2.5515,2.5518,2.5521,2.5497,2.5497,2.5496,0,0,2.5483,2.5483,2.5487,2.5492,2.5493,2.5497,2.5487,2.5494,2.5497,2.5487,2.5495,2.5493,2.5493,2.5502,2.5506,2.5502,2.5521,2.5515,2.5516,2.5516,2.552,2.5522,2.5524,2.5497,2.5497,2.5497,0,0,2.5503,2.5504,2.5513,2.5513,2.5514,2.5511,2.5513,2.5512,2.5511,2.5518,2.5511,2.5514,2.552,2.552,2.552,2.5537,2.5531,2.5538,2.5548,2.5552,2.5554,2.5556,2.556,2.5562,2.554,2.554,2.554,0,2.5514,2.5522,2.5518,2.5524,2.5525,2.5517,2.5525,2.5525,2.5527,2.5527,2.5523,2.5529,2.5528,2.5536,2.554,2.5541,2.5542,2.5538,2.5554,2.5556,2.5557,2.5562,2.5563,2.554,2.554,2.554,2.554,0,2.5535,2.554,2.5547,2.5548,2.5551,2.5558,2.5553,2.5556,2.5551,2.5549,2.5555,2.5554,2.5556,2.5557,2.5554,2.5564,2.5561,2.5556,2.5547,2.5561,2.5564,2.5566,2.5542,2.5541,2.5541,2.5541,0,0,2.5563,2.5561,2.5563,2.5563,2.5562,2.5566,2.5572,2.5574,2.5575,2.5576,2.558,2.5584,2.5578,2.5579,2.5575,2.5578,2.559,2.5572,2.5572,2.5574,2.5599,2.5603,2.5605,2.5586,2.5586,2.5586,2.5599,0,2.5581,2.5591,2.5586,2.5596,2.56,2.5592,2.5597,2.5596,2.5593,2.5595,2.5592,2.5595,2.5588,2.5588,2.5591,2.5588,2.5595,2.5587,2.5588,2.5588,2.5587,2.5607,2.5611,2.5623,2.56,2.5601,2.5601,0,2.5603,2.5604,2.5615,2.5611,2.5613,2.5617,2.5617,2.562,2.5619,2.5616,2.5616,2.5611,2.5615,2.5607,2.5611,2.5606,2.5606,2.5604,2.5605,2.5604,2.5595,2.5605,2.5627,2.5628,2.5603,2.5603,2.5603,0,2.562,2.5624,2.5631,2.5631,2.5628,2.5631,2.563,2.5628,2.5629,2.5629,2.5629,2.5629,2.5629,2.5629,2.5623,2.5618,2.5628,2.562,2.5625,2.5625,2.5627,2.5626,2.5647,2.5629,2.5629,2.5629,2.5628,0,2.5639,2.5645,2.5638,2.5642,2.5649,2.5643,2.5649,2.5646,2.5645,2.5647,2.564,2.5642,2.5635,2.5636,2.5631,2.5634,2.5635,2.5632,2.5631,2.5632,2.5632,2.5631,2.563,2.5629,2.5629,2.5629,2.5629,0,2.5659,2.5655,2.5661,2.5658,2.5657,2.5661,2.5658,2.566,2.5657,2.566,2.566,2.5655,2.5655,2.565,2.5649,2.5646,2.5651,2.5649,2.5652,2.565,2.5655,2.5655,2.5675,2.5677,2.5659,2.5659,2.5659,0,2.5671,2.5676,2.5672,2.5674,2.5673,2.5675,2.5675,2.5669,2.567,2.5668,2.567,2.567,2.567,2.5671,2.5666,2.5666,2.5663,2.567,2.5662,2.5663,2.5661,2.566,2.566,2.5671,2.5671,2.5672,2.5672,0,2.5692,2.569,2.5691,2.5691,2.5692,2.5691,2.5691,2.5692,2.5685,2.5686,2.5686,2.5686,2.5685,2.5685,2.5683,2.5681,2.5675,2.5674,2.5675,2.5676,2.5677,2.5675,2.5655,2.5674,2.5673,2.5673,2.5673,2.5673,2.5708,2.5711,2.5708,2.5709,2.5708,2.5707,2.5709,2.5706,2.5706,2.5705,2.5701,2.5702,2.5699,2.5696,2.5694,2.5694,2.569,2.5692,2.5692,2.5692,2.5693,2.5678,2.5694,2.5694,2.5694,2.5693,2.5693,0,2.5727,2.5725,2.5726,2.5725,2.5725,2.572,2.5718,2.5719,2.572,2.5718,2.5717,2.5717,2.5716,2.5711,2.571,2.5711,2.5707,2.571,2.571,2.5709,2.5697,2.5696,2.5713,2.5713,2.5713,2.5713,2.5713,2.5713,2.5737,2.5741,2.5738,2.5741,2.5739,2.574,2.5739,2.5737,2.5735,2.5736,2.5735,2.5732,2.5728,2.5726,2.5725,2.5723,2.5722,2.5726,2.5723,2.5712,2.571,2.5708,2.5707,2.5726,2.5726,2.5735,2.5735,2.5735]}]]